Simultaneous Nadir Overpasses (SNOs) Predictions

Prediction of SNOs between AQUA and METOP-A Satellite Orbit:

Table of predicted SNOs for the next 14.0 days since TLE Epoch: 4/12/2013
Index Date (AQUA) Time (AQUA) Lat,Lon (AQUA) SZA (AQUA ) Date (METOP-A) Time (METOP-A) Lat,Lon (METOP-A) SZA (METOP-A ) Distance(km) Time Diff (sec)
1 04/12/2013 13:53:01 73.87, -34.04 65.00 04/12/2013 13:52:39 73.89, -34.15 65.03 3.60 22
2 04/12/2013 14:42:28 -73.95, 133.42 114.93 04/12/2013 14:43:19 -73.97, 133.39 114.91 2.33 51
3 04/15/2013 08:37:43 -73.55,-134.53 116.35 04/15/2013 08:36:33 -73.49,-136.02 116.35 47.53 70
4 04/15/2013 09:27:18 73.93, 32.26 64.05 04/15/2013 09:27:04 73.93, 32.36 64.05 2.90 14
5 04/15/2013 10:16:44 -73.96,-160.15 115.94 04/15/2013 10:17:45 -73.96,-160.23 115.94 2.53 61
6 04/18/2013 04:12:03 -73.86, -68.77 117.02 04/18/2013 04:10:50 -73.87, -68.73 117.00 1.48 73
7 04/18/2013 05:01:32 73.94, 98.69 63.06 04/18/2013 05:01:29 73.91, 98.72 63.03 3.25 3
8 04/18/2013 05:50:59 -74.01, -93.83 116.88 04/18/2013 05:52:09 -74.00, -93.75 116.90 3.04 70
9 04/20/2013 23:46:17 -73.86, -2.32 117.99 04/20/2013 23:45:16 -73.84, -2.38 118.00 2.77 61
10 04/21/2013 00:35:46 73.95, 165.12 62.09 04/21/2013 00:35:54 73.94, 165.18 62.08 1.97 8
11 04/21/2013 01:25:19 -74.32, -28.10 117.52 04/21/2013 01:26:28 -74.32, -26.54 117.58 46.85 69
12 04/23/2013 19:20:30 -73.86, 64.13 118.94 04/23/2013 19:19:41 -73.86, 64.06 118.93 2.19 49
13 04/23/2013 20:09:59 73.95,-128.44 61.15 04/23/2013 20:10:19 73.95,-128.38 61.15 1.81 20




NCC Satellite Simultaneous Nadir Overpasses (SNOs) Prediction Service
